Time,TemperatureF,DewpointF,PressureIn,WindDirection,WindDirectionDegrees,WindSpeedMPH,WindSpeedGustMPH,Humidity,HourlyPrecipIn,Conditions,Clouds,dailyrainin,SoftwareType,DateUTC
2013-05-03 00:03:00,65.7,65.1,29.71,ENE,67,0.0,-999.0,98,-99.99,,,0.00,Acu-Link.com,2013-05-03 05:03:00,
2013-05-03 00:19:00,65.5,64.9,29.70,ESE,112,0.0,-999.0,98,-99.99,,,0.00,Acu-Link.com,2013-05-03 05:19:00,
2013-05-03 00:34:00,65.5,64.9,29.70,SSE,157,0.0,-999.0,98,-99.99,,,0.00,Acu-Link.com,2013-05-03 05:34:00,
2013-05-03 00:49:00,65.5,64.9,29.70,SE,135,0.0,-999.0,98,-99.99,,,0.01,Acu-Link.com,2013-05-03 05:49:00,
2013-05-03 01:04:00,65.1,64.5,29.69,East,90,0.0,-999.0,98,-99.99,,,0.15,Acu-Link.com,2013-05-03 06:04:00,
2013-05-03 01:19:00,64.9,64.3,29.68,WNW,292,0.0,-999.0,98,-99.99,,,0.27,Acu-Link.com,2013-05-03 06:19:00,
2013-05-03 01:34:00,64.9,64.3,29.67,ESE,112,0.0,-999.0,98,-99.99,,,0.40,Acu-Link.com,2013-05-03 06:34:00,
2013-05-03 01:49:00,64.9,64.3,29.67,East,90,0.0,-999.0,98,-99.99,,,0.43,Acu-Link.com,2013-05-03 06:49:00,
2013-05-03 02:04:00,64.8,64.2,29.66,ESE,112,0.0,-999.0,98,-99.99,,,0.50,Acu-Link.com,2013-05-03 07:04:00,
2013-05-03 02:19:00,64.6,64.0,29.65,ESE,112,0.0,-999.0,98,-99.99,,,0.54,Acu-Link.com,2013-05-03 07:19:00,
2013-05-03 02:35:00,64.6,64.0,29.65,SE,135,0.0,-999.0,98,-99.99,,,0.58,Acu-Link.com,2013-05-03 07:35:00,
2013-05-03 02:50:00,64.6,64.0,29.65,ENE,67,0.0,-999.0,98,-99.99,,,0.58,Acu-Link.com,2013-05-03 07:50:00,
2013-05-03 03:05:00,64.6,64.0,29.65,South,180,1.7,-999.0,98,-99.99,,,0.58,Acu-Link.com,2013-05-03 08:05:00,
2013-05-03 03:20:00,64.6,64.0,29.65,SSE,157,1.7,-999.0,98,-99.99,,,0.59,Acu-Link.com,2013-05-03 08:20:00,
2013-05-03 03:35:00,64.6,64.0,29.65,ENE,67,0.0,-999.0,98,-99.99,,,0.59,Acu-Link.com,2013-05-03 08:35:00,
2013-05-03 03:50:00,64.6,64.0,29.64,NE,45,0.0,-999.0,98,-99.99,,,0.61,Acu-Link.com,2013-05-03 08:50:00,
2013-05-03 04:06:00,64.4,63.8,29.64,SE,135,0.0,-999.0,98,-99.99,,,0.62,Acu-Link.com,2013-05-03 09:06:00,
2013-05-03 04:21:00,64.4,63.8,29.64,ESE,112,0.0,-999.0,98,-99.99,,,0.62,Acu-Link.com,2013-05-03 09:21:00,
2013-05-03 04:36:00,64.4,63.8,29.64,East,90,0.0,-999.0,98,-99.99,,,0.62,Acu-Link.com,2013-05-03 09:36:00,
2013-05-03 04:51:00,64.4,63.8,29.64,NE,45,1.1,-999.0,98,-99.99,,,0.63,Acu-Link.com,2013-05-03 09:51:00,
2013-05-03 05:06:00,64.6,64.0,29.64,SW,225,2.7,-999.0,98,-99.99,,,0.66,Acu-Link.com,2013-05-03 10:06:00,
2013-05-03 05:21:00,64.4,63.8,29.64,SSE,157,2.2,-999.0,98,-99.99,,,0.70,Acu-Link.com,2013-05-03 10:21:00,
2013-05-03 05:36:00,64.4,63.8,29.63,East,90,0.0,-999.0,98,-99.99,,,0.77,Acu-Link.com,2013-05-03 10:36:00,
2013-05-03 05:51:00,64.4,63.8,29.63,ESE,112,0.0,-999.0,98,-99.99,,,0.78,Acu-Link.com,2013-05-03 10:51:00,
2013-05-03 06:06:00,64.4,63.8,29.63,SSE,157,0.0,-999.0,98,-99.99,,,0.78,Acu-Link.com,2013-05-03 11:06:00,
2013-05-03 06:22:00,64.4,63.8,29.63,SSE,157,1.1,-999.0,98,-99.99,,,0.78,Acu-Link.com,2013-05-03 11:22:00,
2013-05-03 06:37:00,64.4,63.8,29.63,NE,45,1.7,-999.0,98,-99.99,,,0.78,Acu-Link.com,2013-05-03 11:37:00,
2013-05-03 06:52:00,64.4,63.8,29.63,SSE,157,0.0,-999.0,98,-99.99,,,0.79,Acu-Link.com,2013-05-03 11:52:00,
2013-05-03 07:07:00,64.6,64.0,29.63,ESE,112,1.7,-999.0,98,-99.99,,,0.79,Acu-Link.com,2013-05-03 12:07:00,
2013-05-03 07:22:00,64.9,64.3,29.63,ESE,112,2.7,-999.0,98,-99.99,,,0.79,Acu-Link.com,2013-05-03 12:22:00,
2013-05-03 07:37:00,65.1,64.5,29.63,South,180,3.7,-999.0,98,-99.99,,,0.79,Acu-Link.com,2013-05-03 12:37:00,
2013-05-03 07:52:00,65.1,64.5,29.64,SSE,157,3.2,-999.0,98,-99.99,,,0.79,Acu-Link.com,2013-05-03 12:52:00,
2013-05-03 08:07:00,58.6,58.0,29.66,North,0,5.3,-999.0,98,-99.99,,,0.79,Acu-Link.com,2013-05-03 13:07:00,
2013-05-03 08:22:00,56.1,55.5,29.67,NNW,337,3.7,-999.0,98,-99.99,,,0.83,Acu-Link.com,2013-05-03 13:22:00,
2013-05-03 08:38:00,54.9,54.3,29.67,North,0,7.3,-999.0,98,-99.99,,,0.88,Acu-Link.com,2013-05-03 13:38:00,
2013-05-03 08:53:00,53.8,53.2,29.69,NNW,337,7.8,-999.0,98,-99.99,,,0.93,Acu-Link.com,2013-05-03 13:53:00,
2013-05-03 09:08:00,53.6,53.0,29.69,NW,315,4.2,-999.0,98,-99.99,,,1.03,Acu-Link.com,2013-05-03 14:08:00,
2013-05-03 09:23:00,53.6,53.0,29.69,NNW,337,4.2,-999.0,98,-99.99,,,1.05,Acu-Link.com,2013-05-03 14:23:00,
2013-05-03 09:38:00,52.7,52.2,29.70,NNE,22,6.3,-999.0,98,-99.99,,,1.07,Acu-Link.com,2013-05-03 14:38:00,
2013-05-03 09:53:00,52.2,51.7,29.70,NNW,337,4.2,-999.0,98,-99.99,,,1.17,Acu-Link.com,2013-05-03 14:53:00,
2013-05-03 10:08:00,52.3,51.8,29.70,ENE,67,4.2,-999.0,98,-99.99,,,1.19,Acu-Link.com,2013-05-03 15:08:00,
2013-05-03 10:23:00,53.1,52.5,29.70,WNW,292,4.2,-999.0,98,-99.99,,,1.22,Acu-Link.com,2013-05-03 15:23:00,
2013-05-03 10:38:00,53.1,52.5,29.70,NW,315,8.3,-999.0,98,-99.99,,,1.24,Acu-Link.com,2013-05-03 15:38:00,
2013-05-03 10:54:00,52.3,51.8,29.71,North,0,1.7,-999.0,98,-99.99,,,1.24,Acu-Link.com,2013-05-03 15:54:00,
2013-05-03 11:09:00,52.0,51.5,29.71,NW,315,7.3,-999.0,98,-99.99,,,1.24,Acu-Link.com,2013-05-03 16:09:00,
2013-05-03 11:24:00,51.8,51.3,29.72,North,0,6.3,-999.0,98,-99.99,,,1.25,Acu-Link.com,2013-05-03 16:24:00,
2013-05-03 11:39:00,52.0,51.5,29.72,North,0,4.7,-999.0,98,-99.99,,,1.26,Acu-Link.com,2013-05-03 16:39:00,
2013-05-03 11:54:00,51.6,51.1,29.72,WNW,292,2.7,-999.0,98,-99.99,,,1.26,Acu-Link.com,2013-05-03 16:54:00,
2013-05-03 12:09:00,51.4,50.9,29.71,NNE,22,2.7,-999.0,98,-99.99,,,1.28,Acu-Link.com,2013-05-03 17:09:00,
2013-05-03 12:24:00,50.4,49.9,29.72,NNE,22,3.2,-999.0,98,-99.99,,,1.31,Acu-Link.com,2013-05-03 17:24:00,
2013-05-03 12:39:00,49.6,49.1,29.71,WNW,292,4.2,-999.0,98,-99.99,,,1.35,Acu-Link.com,2013-05-03 17:39:00,
2013-05-03 12:54:00,49.8,49.3,29.71,North,0,2.7,-999.0,98,-99.99,,,1.42,Acu-Link.com,2013-05-03 17:54:00,
2013-05-03 13:09:00,50.4,49.9,29.71,WNW,292,4.7,-999.0,98,-99.99,,,1.43,Acu-Link.com,2013-05-03 18:09:00,
2013-05-03 13:25:00,50.5,50.0,29.71,NNW,337,4.2,-999.0,98,-99.99,,,1.45,Acu-Link.com,2013-05-03 18:25:00,
2013-05-03 13:40:00,50.9,50.4,29.71,NW,315,4.7,-999.0,98,-99.99,,,1.52,Acu-Link.com,2013-05-03 18:40:00,
2013-05-03 13:55:00,51.4,50.9,29.71,NNW,337,4.7,-999.0,98,-99.99,,,1.55,Acu-Link.com,2013-05-03 18:55:00,
2013-05-03 14:10:00,51.6,51.1,29.71,NE,45,4.2,-999.0,98,-99.99,,,1.56,Acu-Link.com,2013-05-03 19:10:00,
2013-05-03 14:25:00,52.0,51.5,29.70,WNW,292,5.8,-999.0,98,-99.99,,,1.57,Acu-Link.com,2013-05-03 19:25:00,
2013-05-03 14:40:00,51.4,50.9,29.70,NW,315,7.8,-999.0,98,-99.99,,,1.58,Acu-Link.com,2013-05-03 19:40:00,
2013-05-03 14:55:00,51.6,51.1,29.71,West,270,6.3,-999.0,98,-99.99,,,1.58,Acu-Link.com,2013-05-03 19:55:00,
2013-05-03 15:10:00,50.4,49.9,29.71,North,0,10.4,-999.0,98,-99.99,,,1.59,Acu-Link.com,2013-05-03 20:10:00,
2013-05-03 15:26:00,50.7,50.2,29.70,West,270,6.3,-999.0,98,-99.99,,,1.59,Acu-Link.com,2013-05-03 20:26:00,
2013-05-03 15:41:00,49.6,49.1,29.71,NW,315,4.2,-999.0,98,-99.99,,,1.60,Acu-Link.com,2013-05-03 20:41:00,
2013-05-03 15:56:00,50.0,49.5,29.71,NNE,22,4.7,-999.0,98,-99.99,,,1.60,Acu-Link.com,2013-05-03 20:56:00,
2013-05-03 16:11:00,48.7,48.2,29.71,NNW,337,11.9,-999.0,98,-99.99,,,1.60,Acu-Link.com,2013-05-03 21:11:00,
2013-05-03 16:26:00,48.7,48.2,29.71,WNW,292,9.9,-999.0,98,-99.99,,,1.60,Acu-Link.com,2013-05-03 21:26:00,
2013-05-03 16:41:00,48.4,47.9,29.72,NW,315,8.3,-999.0,98,-99.99,,,1.60,Acu-Link.com,2013-05-03 21:41:00,
2013-05-03 16:56:00,47.5,47.0,29.72,NE,45,6.3,-999.0,98,-99.99,,,1.60,Acu-Link.com,2013-05-03 21:56:00,
2013-05-03 17:11:00,47.3,46.8,29.73,West,270,2.7,-999.0,98,-99.99,,,1.60,Acu-Link.com,2013-05-03 22:11:00,
2013-05-03 17:26:00,47.1,46.6,29.73,West,270,7.8,-999.0,98,-99.99,,,1.60,Acu-Link.com,2013-05-03 22:26:00,
2013-05-03 17:42:00,46.9,46.4,29.73,NNE,22,7.3,-999.0,98,-99.99,,,1.60,Acu-Link.com,2013-05-03 22:42:00,
2013-05-03 17:57:00,46.8,46.3,29.74,NNW,337,5.8,-999.0,98,-99.99,,,1.60,Acu-Link.com,2013-05-03 22:57:00,
2013-05-03 18:12:00,46.8,46.3,29.74,WNW,292,7.3,-999.0,98,-99.99,,,1.60,Acu-Link.com,2013-05-03 23:12:00,
2013-05-03 18:27:00,46.4,45.9,29.75,NW,315,4.7,-999.0,98,-99.99,,,1.60,Acu-Link.com,2013-05-03 23:27:00,
2013-05-03 18:42:00,46.4,45.9,29.76,NW,315,4.2,-999.0,98,-99.99,,,1.60,Acu-Link.com,2013-05-03 23:42:00,
2013-05-03 18:57:00,46.2,45.7,29.76,NW,315,5.3,-999.0,98,-99.99,,,1.60,Acu-Link.com,2013-05-03 23:57:00,
2013-05-03 19:12:00,46.4,45.9,29.76,West,270,2.7,-999.0,98,-99.99,,,1.60,Acu-Link.com,2013-05-04 00:12:00,
2013-05-03 19:27:00,46.4,44.8,29.77,North,0,5.8,-999.0,94,-99.99,,,1.60,Acu-Link.com,2013-05-04 00:27:00,
2013-05-03 19:42:00,46.4,45.9,29.77,WNW,292,4.7,-999.0,98,-99.99,,,1.60,Acu-Link.com,2013-05-04 00:42:00,
2013-05-03 19:58:00,45.9,45.4,29.77,West,270,5.8,-999.0,98,-99.99,,,1.60,Acu-Link.com,2013-05-04 00:58:00,
2013-05-03 20:13:00,45.7,45.2,29.78,WNW,292,4.2,-999.0,98,-99.99,,,1.60,Acu-Link.com,2013-05-04 01:13:00,
2013-05-03 20:28:00,44.6,44.1,29.78,West,270,5.8,-999.0,98,-99.99,,,1.60,Acu-Link.com,2013-05-04 01:28:00,
2013-05-03 20:43:00,45.0,44.5,29.78,WNW,292,1.7,-999.0,98,-99.99,,,1.60,Acu-Link.com,2013-05-04 01:43:00,
2013-05-03 20:58:00,44.4,43.9,29.79,SW,225,1.1,-999.0,98,-99.99,,,1.60,Acu-Link.com,2013-05-04 01:58:00,
2013-05-03 21:13:00,43.7,43.2,29.79,SSW,202,1.1,-999.0,98,-99.99,,,1.60,Acu-Link.com,2013-05-04 02:13:00,
2013-05-03 21:28:00,42.8,42.3,29.79,ENE,67,0.0,-999.0,98,-99.99,,,1.60,Acu-Link.com,2013-05-04 02:28:00,
2013-05-03 21:43:00,42.4,41.9,29.79,NNE,22,0.0,-999.0,98,-99.99,,,1.60,Acu-Link.com,2013-05-04 02:43:00,
2013-05-03 21:58:00,41.9,41.4,29.79,North,0,0.0,-999.0,98,-99.99,,,1.60,Acu-Link.com,2013-05-04 02:58:00,
2013-05-03 22:13:00,41.2,40.7,29.79,North,0,0.0,-999.0,98,-99.99,,,1.60,Acu-Link.com,2013-05-04 03:13:00,
2013-05-03 22:29:00,40.5,40.0,29.79,SSW,202,0.0,-999.0,98,-99.99,,,1.60,Acu-Link.com,2013-05-04 03:29:00,
2013-05-03 22:44:00,40.1,39.6,29.79,NE,45,0.0,-999.0,98,-99.99,,,1.60,Acu-Link.com,2013-05-04 03:44:00,
2013-05-03 22:59:00,39.7,39.2,29.78,NW,315,0.0,-999.0,98,-99.99,,,1.60,Acu-Link.com,2013-05-04 03:59:00,
2013-05-03 23:14:00,39.4,38.9,29.78,East,90,0.0,-999.0,98,-99.99,,,1.60,Acu-Link.com,2013-05-04 04:14:00,
2013-05-03 23:29:00,39.2,38.7,29.78,East,90,0.0,-999.0,98,-99.99,,,1.60,Acu-Link.com,2013-05-04 04:29:00,
2013-05-03 23:44:00,39.2,38.7,29.78,NNW,337,0.0,-999.0,98,-99.99,,,1.60,Acu-Link.com,2013-05-04 04:44:00,
2013-05-03 23:59:00,38.5,38.0,29.78,WNW,292,0.0,-999.0,98,-99.99,,,1.60,Acu-Link.com,2013-05-04 04:59:00,